{"data":{"norad_id":67450,"intl_designator":"2026-008F","name":"STARLINK-36525","alt_names":[],"object_type":"PAYLOAD","status":"ACTIVE","operator":null,"country":"US","launch_date":"2026-01-14","launch_site_code":"AFETR","launch_vehicle":null,"mission":null,"orbit_class":"UNKNOWN","rcs_meters":null,"size_class":null,"mass_kg":null,"dimensions":null,"purposes":["comms"],"wikipedia_slug":null,"has_3d_model":false,"image_url":null,"decayed_at":null,"tle_current":{"epoch":"2026-09-19T04:25:23.284992Z","epoch_age_seconds":185935,"freshness":"STALE","line1":"1 67450U 26008F   26262.18429728  .00010553  00000+0  39235-3 0  9995","line2":"2 67450  43.0036 192.5650 0001221 266.1983  93.8729 15.27589153 39162","mean_motion":15.27589153,"eccentricity":0.0001221,"inclination_deg":43.0036,"raan_deg":192.565,"arg_perigee_deg":266.1983,"mean_anomaly_deg":93.8729,"bstar":0.00039235,"rev_number":3916,"period_min":94.266183886683,"perigee_km":482.18394132582,"apogee_km":483.85943627763,"semimajor_km":6861.1586888017,"source":"CELESTRAK","updated_at":"2026-09-20T09:00:43.547150Z"}}}